GFSNIL_sfc_rhum_000.txt.gz
RH
45 42 43 46 43 38 37 38 34 33 32 33 35 38 40 48 48 44 51 46 50 54
50 46 44 41 37 39 37 30 32 32 33 35 37 39 41 48 46 49 50 51 52 53
41 39 37 35 36 33 30 31 31 33 35 37 39 41 44 48 48 47 51 47 51 53
35 34 32 31 31 30 31 31 34 36 37 39 42 44 46 47 44 50 52 53 56 57
30 29 30 31 31 31 33 35 37 38 40 43 46 47 46 46 50 54 56 56 62 66
30 31 33 34 34 35 36 38 39 41 44 46 48 45 44 49 54 57 58 61 64 66
34 35 36 38 38 38 38 39 42 46 46 48 46 42 43 55 59 60 59 61 66 68
39 41 42 42 40 40 41 44 47 47 48 49 43 32 55 58 64 63 65 66 64 65
44 45 45 41 40 41 45 48 50 50 51 52 37 49 50 52 68 65 66 72 69 70
45 44 42 39 39 43 48 52 53 53 53 53 53 50 52 53 66 67 72 69 68 65
44 42 40 39 42 48 52 55 55 55 55 56 47 54 53 56 67 72 73 70 72 74
42 41 41 45 49 53 55 56 57 54 57 59 62 57 57 59 69 69 71 68 72 75
41 41 47 52 53 56 56 52 53 53 59 62 64 62 60 58 68 76 70 70 76 70
44 51 53 55 57 58 60 60 66 63 68 67 67 71 62 61 62 66 63 62 70 72

GFSNIL_sfc_rhum_003.txt.gz
RH
30 32 30 32 29 27 27 28 27 27 26 28 29 31 33 36 37 36 37 37 37 37
32 34 35 31 29 29 29 26 26 27 28 29 30 31 33 33 33 35 37 37 38 38
34 34 32 29 29 28 25 25 27 28 29 30 31 31 32 33 34 35 37 36 39 39
34 31 27 26 25 25 24 25 27 28 30 31 31 31 30 32 35 39 40 40 44 44
29 27 26 24 25 24 26 27 29 31 33 32 32 30 30 37 40 42 43 44 49 49
26 25 25 25 26 28 28 30 32 34 33 32 33 30 31 38 42 45 45 46 46 47
26 26 27 29 29 30 30 34 35 34 35 35 32 31 34 44 45 48 48 48 48 49
31 32 32 33 32 34 37 37 36 35 36 35 33 29 44 47 48 51 50 49 48 49
37 36 36 34 36 39 40 38 37 37 37 38 32 49 50 49 48 51 51 51 49 51
36 37 36 35 38 40 39 38 38 37 38 39 40 50 52 53 47 52 52 55 54 54
36 35 35 37 38 38 38 38 38 39 41 43 41 55 54 57 50 52 54 56 55 57
35 35 38 40 39 40 38 39 41 41 44 46 49 56 58 56 52 53 54 54 55 59
34 38 41 40 40 41 41 41 41 44 47 56 49 60 60 56 52 56 54 54 55 63
41 42 41 41 41 44 45 46 48 50 50 50 53 52 61 61 53 56 58 55 57 56

GFSNIL_sfc_rhum_006.txt.gz
RH
42 42 29 27 25 23 22 22 22 21 20 20 22 24 26 27 29 28 28 32 32 31
43 37 28 27 24 23 22 20 21 21 21 22 23 24 25 25 25 26 29 30 31 32
34 29 28 24 25 24 20 19 21 21 22 23 24 24 24 24 26 26 28 29 32 32
33 29 24 23 23 21 19 19 20 20 21 22 23 22 22 24 27 30 31 33 36 37
28 24 23 21 20 18 19 19 20 21 23 23 23 21 22 26 29 32 34 34 40 40
25 24 21 21 19 20 20 22 23 24 24 23 25 23 22 27 30 32 34 36 36 34
24 22 20 21 21 22 22 25 25 25 25 26 25 25 26 32 33 34 37 39 39 35
23 23 23 24 24 25 27 26 26 26 26 26 26 22 37 38 38 38 37 36 36 37
27 27 28 27 28 30 30 28 27 28 28 29 24 45 49 49 39 37 38 38 36 37
28 29 29 29 29 31 29 28 28 27 28 28 29 47 52 54 42 40 39 44 45 43
28 28 28 28 29 28 26 27 27 28 28 30 29 53 54 57 42 39 41 44 42 42
27 28 29 30 29 28 26 27 28 29 30 29 30 46 57 55 42 39 41 40 40 46
26 29 30 30 27 30 28 30 29 30 29 36 32 42 57 54 43 42 40 39 40 50
29 28 28 28 28 29 29 30 27 28 28 32 35 38 55 59 48 44 45 44 44 47

GFSNIL_sfc_rhum_009.txt.gz
RH
47 52 43 34 31 29 29 27 26 25 24 24 24 26 27 30 32 29 32 36 37 36
48 45 39 32 30 28 27 24 24 24 23 23 23 24 25 27 26 28 31 34 35 36
44 35 32 29 28 28 24 22 24 23 23 23 23 23 24 26 25 26 30 32 33 34
38 34 29 29 27 25 22 22 22 22 22 22 23 22 22 23 26 29 30 33 38 38
36 30 31 27 24 21 21 20 21 21 22 22 22 21 21 23 26 29 32 33 43 44
33 31 29 23 21 21 21 21 22 23 24 22 24 23 22 22 25 28 31 34 35 37
32 31 26 22 22 23 22 24 24 24 24 25 23 24 24 28 31 33 36 36 38 36
30 27 24 25 25 25 27 25 25 25 25 25 25 22 37 38 39 38 36 36 34 36
30 28 30 29 29 30 29 28 27 27 26 27 22 45 49 51 45 39 37 37 35 37
30 31 33 31 30 32 30 28 28 26 26 25 27 44 51 54 46 42 40 46 48 45
32 34 31 30 31 28 27 27 26 25 26 29 28 46 50 56 47 39 40 47 42 43
30 31 32 32 29 27 26 26 25 27 28 28 26 39 49 54 46 41 41 38 39 41
28 31 32 31 28 28 28 29 29 30 27 28 30 34 46 52 46 46 43 41 41 47
29 29 28 27 27 27 28 32 26 28 24 26 29 34 43 52 51 50 50 50 49 49

GFSNIL_sfc_rhum_012.txt.gz
RH
54 54 53 55 47 37 34 34 35 35 39 38 38 40 42 46 46 41 46 43 48 52
54 57 54 54 46 33 30 30 33 32 36 35 35 36 37 43 40 38 42 45 48 52
54 52 49 45 40 33 31 26 29 33 35 34 33 33 35 36 33 35 43 44 44 48
48 44 40 37 29 28 27 27 28 34 34 32 32 31 32 32 33 36 41 44 48 50
40 35 37 30 27 25 26 26 28 32 32 30 30 27 28 31 34 38 41 44 50 54
34 32 31 29 28 27 26 27 31 32 32 31 33 29 29 31 34 38 42 45 48 50
36 33 29 28 27 31 26 33 34 34 33 34 31 30 32 38 44 48 49 50 51 50
35 33 29 32 37 36 34 34 33 33 33 33 31 33 51 54 56 54 52 50 46 46
34 32 35 34 34 36 37 36 34 34 34 35 25 46 49 53 61 59 55 54 51 51
50 50 41 35 37 39 37 35 34 34 32 32 48 48 47 50 61 63 62 62 60 56
68 45 38 38 35 34 34 36 35 32 32 36 40 46 47 53 63 60 57 59 56 57
56 37 36 35 35 36 35 33 33 34 34 35 42 42 43 54 65 62 61 53 53 54
35 36 38 38 38 35 34 34 35 35 36 38 41 35 40 50 62 71 66 63 58 56
34 35 35 34 32 36 40 38 36 33 34 35 38 42 38 45 61 69 70 71 67 66

GFSNIL_sfc_rhum_015.txt.gz
RH
68 72 67 57 49 45 42 43 36 36 41 40 43 47 48 52 52 45 50 46 51 54
61 63 55 53 45 50 41 42 35 36 37 39 43 44 45 48 39 41 47 48 51 55
68 58 54 50 44 46 44 34 36 38 37 39 36 40 43 42 39 39 46 50 48 51
63 52 48 45 42 47 41 41 36 33 33 39 38 37 40 39 39 39 41 47 50 52
52 46 44 44 44 46 44 38 40 34 35 32 35 33 33 34 36 39 42 45 52 54
47 45 45 47 45 38 35 38 36 33 32 32 35 32 32 34 37 41 45 48 50 51
43 41 42 42 36 33 35 38 31 31 33 38 35 34 42 46 53 54 54 52 55 54
37 36 37 41 41 40 38 32 32 32 36 37 37 37 53 57 59 58 55 55 51 51
40 42 47 49 54 50 39 34 33 37 38 34 36 53 55 58 60 59 61 64 60 56
50 56 59 55 54 41 36 35 38 37 34 43 53 53 52 54 60 67 68 65 64 60
64 64 62 59 55 51 40 36 33 33 38 48 51 53 51 55 67 67 63 64 62 63
88 90 90 90 73 58 55 39 36 40 37 46 55 44 46 58 65 65 69 63 65 64
76 54 46 45 36 39 39 40 38 37 37 42 41 37 37 49 64 72 71 68 66 65
57 39 36 37 40 42 38 37 37 38 41 41 42 43 35 40 62 66 70 74 71 70

GFSNIL_sfc_rhum_018.txt.gz
RH
86 85 84 77 71 63 59 59 54 44 41 44 44 45 47 51 49 49 52 49 54 58
84 88 82 78 68 67 65 61 53 46 47 44 44 44 42 47 45 48 52 51 54 57
84 85 84 77 69 61 60 53 50 44 46 46 41 39 43 46 45 45 51 54 52 53
86 80 77 73 63 58 54 48 40 42 45 42 40 38 37 45 39 42 46 51 50 51
81 77 72 64 59 54 47 44 43 44 42 40 46 45 35 36 40 42 46 47 56 55
79 78 70 60 53 45 42 42 43 44 47 44 40 32 33 37 40 44 45 46 48 51
74 68 59 50 49 44 42 46 42 43 43 48 42 33 38 48 53 54 51 51 54 55
63 55 50 46 45 44 46 43 40 45 40 40 45 44 53 57 58 52 52 53 50 53
46 49 49 49 54 57 60 61 58 60 61 60 57 59 58 56 56 55 55 57 59 59
55 61 56 54 57 62 70 74 80 61 44 54 57 55 55 59 56 58 62 63 65 58
67 69 70 72 76 81 76 60 49 46 50 56 52 56 54 58 60 64 68 67 65 68
76 82 86 91 94 95 94 87 81 70 57 63 57 49 51 61 68 65 70 66 70 72
87 88 94 95 96 97 92 65 46 41 38 44 45 43 40 61 66 70 68 71 70 66
88 86 81 69 46 40 40 37 35 38 42 46 46 49 37 39 62 63 69 74 72 71

GFSNIL_sfc_rhum_021.txt.gz
RH
97 96 93 92 90 83 73 69 67 65 61 58 48 50 49 51 49 43 48 45 52 59
98 96 94 91 88 85 78 71 69 63 60 54 52 51 52 50 45 43 50 49 54 56
98 95 94 91 85 76 76 66 66 59 56 55 51 48 49 49 46 49 56 59 54 58
96 95 92 86 77 72 72 68 62 58 53 47 46 46 48 46 42 43 47 51 51 54
96 95 93 87 78 74 71 64 57 48 44 44 46 48 54 59 66 63 49 48 57 59
90 94 92 85 76 74 66 60 55 45 46 50 58 63 64 60 56 43 43 48 50 51
89 91 84 75 70 64 58 54 48 48 52 56 60 64 68 68 59 53 51 52 53 51
84 74 69 67 62 60 60 56 50 54 57 64 70 72 79 71 62 52 50 50 48 52
62 62 64 62 64 59 56 59 62 68 72 79 75 80 75 66 60 53 52 54 56 56
66 70 71 70 74 74 78 77 84 84 80 82 82 77 71 64 59 59 58 58 60 57
75 81 84 82 83 87 86 82 82 86 92 94 89 87 80 67 59 58 62 65 67 72
86 87 86 90 90 91 94 96 97 98 99 99 97 78 72 62 60 59 64 67 72 77
90 90 93 92 96 98 97 100 97 98 96 86 62 52 46 62 64 69 66 70 70 67
91 93 93 95 95 94 91 72 50 43 46 45 46 48 40 40 63 63 68 73 72 70

GFSNIL_sfc_rhum_024.txt.gz
RH
86 97 96 95 95 94 89 84 80 75 74 74 68 65 64 66 66 54 53 43 48 54
90 98 98 97 96 94 93 88 83 79 77 73 66 60 59 63 65 51 49 47 50 54
99 92 97 97 97 96 93 85 80 79 76 72 65 59 54 54 52 53 68 76 64 59
98 99 98 98 96 93 87 81 81 76 72 69 62 49 50 49 48 50 53 57 58 59
94 99 99 97 92 86 82 76 72 71 67 62 53 47 48 48 53 56 61 67 71 69
98 99 98 91 79 77 75 72 65 61 57 53 52 51 57 61 73 80 82 83 81 65
94 95 90 82 77 71 65 62 57 53 55 58 58 63 65 66 68 69 67 65 60 54
87 81 78 74 69 61 62 64 69 74 78 82 82 71 80 81 81 83 81 74 64 64
72 73 73 71 71 69 72 72 75 79 80 85 87 87 80 71 72 73 81 90 88 79
71 73 77 76 78 80 85 86 90 90 86 90 90 86 89 91 92 95 97 86 64 56
81 85 87 88 91 92 92 92 91 92 94 96 93 90 92 93 94 74 65 65 63 75
88 91 92 99 99 99 99 99 99 99 100 99 100 97 90 88 74 61 61 62 68 72
93 95 98 98 98 100 98 100 98 100 100 97 99 86 86 78 58 62 62 72 70 66
97 97 97 100 98 99 98 96 95 94 77 76 56 54 45 58 61 62 68 73 72 70

GFSNIL_sfc_rhum_027.txt.gz
RH
79 84 81 89 87 88 86 84 79 78 74 71 69 69 67 68 69 65 63 51 50 54
84 80 88 91 92 87 84 83 80 77 74 73 76 72 70 69 65 60 54 50 46 45
73 84 83 86 90 87 85 81 79 77 75 75 71 73 71 65 56 48 60 68 66 59
70 72 83 85 84 86 85 80 78 75 74 72 69 65 72 73 51 49 56 63 64 62
79 78 84 90 90 84 83 78 76 73 71 67 65 63 61 57 54 57 65 73 78 80
88 89 92 90 84 78 73 73 71 68 67 63 60 56 52 56 65 74 81 87 88 82
89 88 87 84 77 74 69 68 67 60 55 55 57 62 68 72 74 73 75 70 73 74
78 77 76 73 71 67 67 65 64 66 68 70 73 73 80 82 84 89 90 92 94 98
70 74 74 76 78 78 82 80 78 80 81 86 87 90 90 89 92 94 96 95 96 95
75 79 82 83 84 86 88 87 91 92 90 92 90 89 88 86 92 97 98 95 85 82
86 88 88 88 91 93 92 93 93 95 95 96 94 89 90 87 88 88 88 85 85 85
88 90 94 98 98 97 97 99 100 100 100 100 100 97 97 89 88 86 85 71 59 63
96 96 97 97 99 99 98 100 100 100 100 99 99 95 86 70 53 66 65 60 58 61
99 99 100 100 99 99 99 97 96 96 92 76 66 76 71 59 53 55 61 60 58 58

GFSNIL_sfc_rhum_030.txt.gz
RH
44 40 53 65 74 80 76 76 75 76 78 77 75 72 68 72 71 72 73 64 59 59
38 53 57 57 63 71 76 84 78 74 76 76 75 73 72 78 73 68 67 65 61 57
47 47 51 59 61 63 67 74 76 75 75 75 76 75 75 76 72 75 76 73 69 72
51 52 50 50 52 56 62 70 73 72 72 73 74 75 78 77 73 70 78 88 90 83
59 59 60 57 58 67 71 73 72 69 72 71 71 70 73 76 77 80 87 83 89 91
64 66 66 71 71 73 72 71 70 66 68 69 68 67 66 61 69 78 84 88 88 91
71 70 71 71 71 69 65 66 63 63 63 61 58 56 60 70 75 80 83 83 85 83
68 65 64 66 64 61 60 56 55 57 64 66 66 67 74 77 78 81 84 92 96 99
72 74 74 75 77 78 79 77 74 78 76 80 78 80 81 82 87 91 95 98 99 100
77 81 83 81 84 88 89 89 92 91 88 89 89 88 90 90 92 97 100 97 95 91
84 88 88 91 93 95 94 94 94 95 95 96 94 90 90 91 95 94 88 79 78 75
86 92 95 98 98 98 98 99 100 100 100 100 100 98 98 97 95 93 85 77 68 60
96 95 97 97 99 99 98 100 98 100 100 98 100 98 93 70 62 62 58 55 54 58
95 99 97 99 98 100 100 100 100 97 89 86 78 68 62 55 47 49 49 46 45 48

GFSNIL_sfc_rhum_033.txt.gz
RH
35 40 39 38 49 57 66 69 76 82 87 87 85 86 86 85 79 76 80 76 73 67
36 38 44 48 49 52 55 61 61 76 82 85 85 86 88 91 87 85 83 83 80 78
43 42 44 42 47 51 50 53 66 79 82 88 86 84 90 93 90 90 91 90 85 83
48 48 47 46 43 42 48 54 62 72 76 78 82 82 89 91 92 91 86 87 87 90
51 53 55 52 55 54 59 60 67 66 69 69 74 79 84 85 85 86 88 90 92 95
63 64 62 61 60 61 63 67 67 68 69 70 70 71 76 77 82 86 89 91 90 92
68 66 64 62 62 61 60 63 63 63 63 63 62 61 66 75 80 84 86 87 88 90
71 70 70 68 67 63 61 59 59 62 63 64 67 70 79 80 83 85 89 94 96 99
71 75 79 78 77 78 78 82 80 80 77 80 76 79 79 82 87 91 96 98 99 100
76 82 86 86 87 89 91 91 95 93 88 89 87 85 87 89 92 97 99 98 98 98
83 87 88 92 94 96 96 97 96 96 97 95 91 90 91 91 93 95 97 97 96 90
86 94 96 98 98 98 98 99 100 99 99 99 100 97 97 97 97 96 93 84 81 64
94 95 97 97 99 99 98 100 98 100 98 92 100 87 88 93 88 91 69 56 54 55
89 94 97 100 94 98 97 96 96 95 90 87 74 65 62 55 50 51 50 47 48 54

GFSNIL_sfc_rhum_036.txt.gz
RH
53 59 62 67 65 69 82 81 79 91 95 96 96 96 97 96 96 92 89 86 92 89
62 61 63 62 62 80 78 78 83 84 89 94 96 96 97 98 97 96 91 93 95 90
64 64 66 66 64 61 68 69 82 84 88 88 94 96 98 98 97 97 98 98 95 93
68 70 73 73 73 75 77 80 84 85 86 84 86 88 93 96 96 97 96 96 96 93
74 74 77 78 80 80 84 84 87 87 86 86 89 91 93 93 91 92 94 94 94 95
76 75 70 66 62 66 75 84 81 79 80 82 83 86 84 85 90 90 92 93 94 95
76 75 71 70 71 71 68 69 70 70 71 74 76 78 83 84 89 88 90 90 91 92
76 76 76 76 76 74 78 80 77 72 74 74 79 78 85 86 88 91 96 97 98 100
78 81 85 85 85 87 89 88 91 88 85 87 83 82 83 87 92 94 97 99 99 100
81 85 88 88 92 94 95 94 96 93 91 91 88 86 87 89 93 96 99 99 99 98
87 94 93 94 97 97 97 96 95 97 96 95 90 88 88 89 94 96 98 99 95 90
90 96 96 98 98 98 98 99 99 99 99 100 100 88 87 92 95 96 97 85 82 78
96 96 98 98 99 94 94 96 95 100 96 86 98 76 76 88 94 95 76 72 65 55
91 98 98 99 92 96 94 96 97 98 98 94 83 77 60 56 66 62 59 59 62 73

GFSNIL_sfc_rhum_039.txt.gz
RH
69 73 72 72 72 76 88 91 86 89 92 91 91 94 95 98 98 98 96 93 92 87
69 73 77 74 74 73 74 79 86 90 91 92 94 94 95 98 98 99 97 95 94 93
82 83 85 85 86 86 87 88 91 91 91 91 92 95 97 98 97 98 99 99 98 97
84 83 83 82 83 90 92 92 92 91 91 91 92 94 95 96 97 98 97 97 97 96
82 82 81 79 70 70 84 84 88 89 89 90 94 94 96 96 96 96 96 94 95 96
86 85 82 78 67 65 67 76 73 72 75 78 85 86 84 87 92 92 92 92 93 95
83 81 76 74 71 72 79 81 80 80 81 83 86 87 84 86 90 94 92 91 92 94
80 84 80 80 81 80 79 89 91 90 90 90 85 79 90 88 91 93 96 98 98 99
81 83 88 88 89 90 89 93 94 94 90 88 83 84 85 89 94 96 98 99 99 100
83 88 90 90 93 94 94 93 96 94 90 90 88 86 86 88 93 96 99 99 99 97
91 94 95 96 97 97 96 97 97 97 97 95 89 86 87 88 94 96 96 94 92 88
92 96 97 98 98 98 96 95 99 99 99 100 99 80 83 90 96 97 96 87 85 82
95 96 98 97 99 97 96 98 94 96 98 82 97 66 72 89 98 94 84 84 70 58
93 97 95 97 94 97 98 98 99 97 96 96 82 78 62 59 71 67 68 68 71 80

GFSNIL_sfc_rhum_042.txt.gz
RH
75 81 81 83 81 80 82 93 92 93 95 94 93 93 93 96 97 98 99 98 95 91
89 92 93 93 91 91 91 85 91 92 90 92 92 95 95 98 98 98 98 99 98 96
89 86 89 91 92 96 95 94 93 93 93 93 94 96 97 98 98 98 99 99 98 97
87 85 83 79 77 84 91 93 94 94 94 95 96 96 96 97 97 97 96 96 98 97
87 86 87 83 75 74 80 77 79 82 84 91 94 94 95 96 96 93 93 93 94 95
90 90 89 82 75 75 78 81 81 80 84 87 90 94 94 94 93 93 91 92 93 94
91 91 79 77 74 73 80 88 89 90 90 90 91 93 95 96 97 97 93 91 93 94
82 84 82 85 87 83 83 94 96 95 94 94 91 86 95 95 94 96 97 98 98 99
82 84 88 88 90 89 89 87 85 89 92 82 78 83 86 94 96 95 97 99 100 100
85 89 93 92 91 92 94 94 95 92 86 86 86 83 85 88 96 97 98 99 97 91
90 94 96 96 97 97 97 97 97 95 94 94 87 84 84 86 94 96 97 96 95 91
93 97 97 99 98 97 95 97 99 99 97 96 95 70 74 90 98 96 95 88 84 81
92 94 97 97 98 96 94 97 91 98 99 79 94 67 66 85 97 94 80 74 72 66
94 95 94 97 96 98 100 97 97 95 93 91 81 80 60 61 71 68 69 70 72 77

GFSNIL_sfc_rhum_045.txt.gz
RH
92 94 95 94 92 91 90 88 93 96 94 93 94 95 95 96 97 98 97 97 99 97
91 92 95 94 96 97 96 93 95 94 94 95 96 98 97 99 99 93 97 98 99 99
90 87 84 83 88 96 96 95 95 95 95 96 96 96 97 98 98 92 96 96 97 97
90 87 85 81 79 82 82 84 90 92 95 95 96 96 96 96 96 93 92 93 94 94
90 90 90 85 80 80 83 81 81 83 88 93 95 95 95 96 95 95 95 94 93 94
94 94 93 88 79 80 83 86 86 87 90 92 94 95 96 96 96 96 96 96 96 96
94 94 92 80 76 77 81 95 96 96 95 94 94 95 96 96 97 98 98 97 96 96
85 85 84 86 85 84 85 95 96 95 93 89 85 88 97 96 91 96 97 98 97 99
84 86 89 89 88 89 88 86 82 81 84 84 81 84 87 92 93 95 98 99 98 98
86 91 92 89 91 94 92 91 94 94 90 89 84 83 85 88 94 97 98 96 96 92
90 94 94 93 96 95 94 95 94 93 92 92 84 82 84 86 94 95 95 95 95 88
94 97 97 98 98 94 96 98 100 97 92 93 93 68 71 87 95 94 94 77 84 78
93 94 97 96 98 95 94 95 97 99 98 80 94 63 62 82 93 91 72 70 71 70
93 95 94 97 93 94 94 91 94 96 95 89 85 82 60 64 73 68 70 70 74 76

GFSNIL_sfc_rhum_048.txt.gz
RH
92 96 96 96 96 96 96 98 94 95 94 95 96 96 95 97 98 99 97 97 98 99
92 92 93 92 95 98 97 91 96 95 95 96 97 98 98 96 97 96 96 97 98 98
91 89 86 85 90 92 89 94 95 95 96 96 96 96 97 98 93 93 95 95 93 94
92 91 89 85 84 86 84 85 88 93 95 96 96 96 96 97 93 92 92 94 94 95
93 93 93 89 86 85 88 86 88 90 93 95 96 96 96 96 96 96 96 96 96 96
95 94 94 91 86 85 90 95 95 92 94 96 96 96 97 97 97 97 98 97 97 97
95 95 94 87 78 81 83 90 97 96 96 95 96 97 97 96 95 95 96 94 96 97
87 85 84 85 84 84 84 87 88 84 82 81 83 89 90 88 92 96 97 96 96 97
85 87 89 88 88 87 87 86 84 86 85 84 80 84 86 91 94 94 94 96 95 95
87 91 91 89 91 90 92 91 95 94 90 88 83 82 84 86 95 94 95 94 94 90
91 93 92 93 94 94 93 94 92 90 89 92 80 79 81 82 93 95 95 95 94 87
92 95 95 97 96 95 95 98 98 95 93 94 94 68 71 85 96 94 92 76 86 84
94 94 98 96 97 95 93 97 97 99 98 83 94 63 62 81 91 89 69 72 70 67
93 96 95 98 94 97 92 96 97 99 94 89 86 82 57 66 73 68 68 71 76 76

GFSNIL_sfc_rhum_051.txt.gz
RH
74 76 79 81 80 81 83 85 86 85 83 84 85 87 88 95 96 94 94 94 92 94
73 74 75 75 80 84 82 80 84 84 84 84 85 90 87 90 91 90 90 90 91 89
72 73 73 71 74 75 72 75 80 82 82 83 84 84 87 88 86 85 88 88 86 88
74 75 72 70 70 71 71 72 76 80 80 80 81 81 85 86 85 82 84 84 84 84
77 77 75 71 72 71 74 74 76 77 78 79 80 79 80 82 82 82 84 84 85 86
80 79 78 74 72 74 77 79 77 76 78 80 81 80 80 81 86 88 86 83 83 84
82 82 80 75 74 77 78 82 82 80 80 81 84 88 88 90 91 88 88 87 84 81
82 80 80 81 81 80 81 80 80 78 78 78 82 83 85 86 88 87 89 90 90 94
82 85 86 85 84 84 84 83 81 81 81 82 80 82 83 85 85 84 86 90 90 87
84 88 88 87 86 88 89 88 91 87 83 84 79 82 84 83 77 80 86 85 82 77
87 89 89 89 90 91 90 89 86 85 83 82 78 79 79 78 80 82 80 77 75 72
88 91 91 94 94 92 92 96 96 89 89 91 91 66 69 76 76 77 73 66 69 64
90 91 93 92 96 93 90 98 88 94 91 82 88 62 62 73 58 63 52 54 55 66
91 95 93 98 92 100 99 93 94 91 86 80 74 69 62 66 56 53 53 55 56 57

GFSNIL_sfc_rhum_054.txt.gz
RH
54 52 53 58 57 56 59 61 67 67 68 70 70 74 80 88 91 94 97 93 92 91
51 55 56 59 59 62 63 64 68 70 70 70 70 78 80 86 86 88 92 93 91 85
53 55 56 55 58 61 59 62 66 68 68 69 69 71 78 78 77 79 83 80 74 73
52 55 55 54 54 56 58 59 62 65 65 66 66 67 75 76 76 74 74 73 72 73
55 57 57 55 56 55 57 58 60 62 63 63 65 64 66 71 73 72 71 71 75 74
57 58 58 58 57 58 59 60 59 61 63 63 65 64 63 64 69 70 70 70 70 70
61 62 62 60 60 62 64 67 68 64 64 66 70 75 78 78 77 77 77 75 71 71
64 66 67 71 72 73 74 75 74 73 70 71 76 78 83 82 80 81 84 87 87 85
69 72 76 77 77 77 79 78 78 79 75 78 75 84 84 79 80 78 80 84 83 78
71 79 82 80 81 84 86 85 84 81 79 80 80 82 83 78 74 79 87 83 78 69
76 80 84 85 86 87 87 87 85 83 79 82 78 80 76 72 71 75 70 66 64 60
78 83 87 90 90 88 89 93 98 87 86 95 90 70 66 68 69 79 73 59 54 50
81 82 88 90 96 92 89 99 86 100 93 78 94 62 61 65 45 52 40 40 44 65
84 88 88 97 92 100 99 94 94 93 90 80 63 60 65 58 42 38 38 40 41 42

GFSNIL_sfc_rhum_057.txt.gz
RH
50 50 50 53 53 52 52 54 58 62 63 64 66 69 81 89 93 93 95 97 97 98
47 51 51 53 53 56 58 59 61 64 67 67 68 70 77 88 88 90 93 94 93 91
48 50 52 52 53 55 55 58 62 64 66 67 67 68 75 77 75 79 85 83 81 82
49 51 51 51 50 52 54 56 59 61 65 64 64 65 72 74 73 72 73 72 72 73
51 52 53 51 52 52 54 55 58 59 61 62 63 63 65 72 73 72 71 72 75 75
51 52 52 52 52 55 57 58 57 59 61 62 63 62 61 63 67 68 69 69 69 70
53 53 53 54 56 57 58 61 62 61 61 64 67 71 72 71 71 72 73 71 70 72
56 58 61 62 64 65 67 69 70 71 70 70 73 75 80 79 78 80 85 86 84 86
61 65 70 69 71 73 75 76 77 79 76 76 71 83 82 78 80 80 85 87 85 84
62 71 75 73 75 78 83 84 87 83 77 78 75 80 80 76 77 86 93 92 89 75
68 74 76 79 82 85 87 90 88 84 79 76 77 78 74 69 78 83 78 76 72 70
70 77 83 89 90 90 92 96 99 92 90 99 93 74 67 71 82 86 80 63 56 54
72 77 85 88 96 93 93 100 94 100 97 80 97 63 59 67 60 61 48 47 55 62
76 83 85 96 94 100 100 97 98 96 94 86 70 57 59 54 46 44 44 45 48 52

GFSNIL_sfc_rhum_060.txt.gz
RH
63 69 64 67 70 70 73 76 76 79 80 80 80 84 92 96 97 96 98 97 97 96
59 64 65 67 67 75 76 68 74 79 82 83 82 84 76 93 93 95 96 96 96 95
62 63 63 65 66 69 70 70 75 78 81 81 82 82 84 86 86 90 92 91 89 89
61 60 61 62 65 66 68 71 71 74 77 79 78 79 80 83 81 81 82 81 82 82
62 61 63 63 64 65 66 68 72 73 75 76 76 79 80 83 82 80 80 78 82 86
64 64 65 64 63 63 66 70 71 71 75 75 77 78 80 79 83 81 83 85 83 88
66 65 64 63 64 67 71 74 79 77 75 80 85 86 86 86 90 91 89 88 89 90
69 68 73 74 75 76 78 80 82 78 76 78 78 78 84 83 86 88 92 91 90 92
74 77 82 83 84 85 88 87 84 83 81 81 73 83 82 83 88 90 91 93 92 89
78 85 84 78 79 88 93 91 90 86 83 83 86 83 81 80 88 94 97 96 91 78
83 86 82 83 85 91 95 94 92 90 84 88 82 78 75 76 89 92 89 85 86 84
86 89 87 92 94 94 96 97 99 94 94 98 92 75 70 82 93 94 86 72 69 66
86 84 93 93 98 96 97 100 100 100 100 84 93 67 60 72 86 77 68 63 72 59
86 87 93 98 96 100 100 99 100 99 99 94 83 72 59 54 51 53 51 55 57 72

GFSNIL_sfc_rhum_063.txt.gz
RH
68 72 71 68 69 70 74 79 82 80 83 85 86 88 92 96 98 96 97 95 97 98
66 66 69 70 74 78 80 73 78 82 85 86 87 87 89 90 94 96 97 97 96 97
65 66 67 68 70 72 73 72 74 79 83 84 85 87 89 89 89 92 93 92 92 91
67 64 66 69 71 68 70 71 74 76 78 82 83 84 87 86 84 85 88 84 87 85
71 69 69 68 68 66 68 70 69 71 74 78 81 82 87 86 84 83 83 82 87 86
74 73 70 71 67 67 68 71 72 71 75 77 80 84 87 80 82 82 83 84 84 87
75 74 72 72 72 70 74 80 80 77 77 82 85 88 89 86 86 86 87 88 92 92
75 73 77 81 83 83 83 83 83 82 83 83 81 79 85 85 88 90 92 92 89 92
79 82 87 88 91 91 91 91 90 90 88 84 73 84 83 85 91 91 92 96 95 93
82 89 92 92 92 93 94 93 94 92 88 86 89 84 84 83 91 95 96 97 92 79
88 92 92 90 88 91 94 96 96 92 88 89 84 80 81 85 92 96 94 92 88 86
90 93 93 93 93 93 95 98 99 94 93 97 94 75 77 86 93 91 87 79 74 81
90 92 94 94 96 96 97 100 100 100 100 90 97 77 69 81 93 85 80 75 72 67
92 94 94 97 98 100 100 100 100 100 98 93 88 82 61 62 63 62 60 59 62 71

GFSNIL_sfc_rhum_066.txt.gz
RH
93 87 84 82 78 76 77 80 81 81 81 83 86 90 92 96 97 98 99 98 97 97
86 87 82 80 76 78 80 77 77 81 83 86 89 90 91 96 95 96 98 98 98 98
71 70 70 70 73 74 75 73 79 80 84 86 88 88 90 94 93 95 96 95 96 94
68 68 68 70 74 78 74 73 76 77 81 84 85 85 89 90 86 88 91 88 91 89
66 68 70 73 75 74 76 77 78 79 80 83 83 85 88 87 91 86 88 88 90 89
76 74 76 73 74 74 76 80 80 78 80 83 83 84 84 86 88 85 85 86 89 88
83 81 78 76 76 76 79 85 86 84 82 85 88 89 90 89 88 84 86 86 87 88
81 80 80 83 85 86 88 88 89 88 88 89 87 85 91 89 88 89 90 90 89 92
82 84 89 91 92 92 92 91 91 91 91 91 79 80 82 84 92 92 92 95 96 94
84 89 92 93 94 94 94 94 94 94 93 92 92 83 83 84 92 95 97 97 94 82
88 91 94 95 95 95 96 96 96 95 93 93 88 82 85 86 95 98 96 95 88 82
88 92 94 95 95 96 96 97 99 95 95 96 95 80 81 88 94 95 92 83 82 82
90 91 94 94 96 96 95 100 100 100 99 92 99 82 78 86 96 91 86 76 77 74
93 93 94 96 97 100 100 100 100 100 100 97 91 89 73 71 79 75 79 73 74 75

GFSNIL_sfc_rhum_069.txt.gz
RH
98 98 97 95 94 91 87 84 85 84 81 81 82 88 92 96 97 98 99 99 99 99
94 94 93 93 89 85 84 85 83 82 84 86 87 91 92 96 96 96 97 98 98 99
81 80 81 83 86 83 81 80 82 82 87 89 89 89 90 94 95 97 97 98 98 97
78 75 71 71 73 76 75 77 78 81 85 86 84 88 90 91 92 95 94 94 92 94
75 76 71 70 75 74 75 75 80 83 84 86 87 88 89 90 90 95 94 89 92 92
79 79 77 75 70 71 71 74 76 79 84 85 87 88 88 90 92 93 92 90 91 92
86 84 83 81 80 78 80 85 87 85 85 87 89 90 90 91 91 91 90 86 88 91
87 86 84 84 87 87 89 89 89 88 89 90 89 87 92 92 92 92 90 90 91 93
87 88 88 90 91 92 92 92 91 92 91 92 85 78 80 86 95 91 92 94 96 96
88 90 91 92 94 94 94 94 94 94 94 94 92 83 83 84 93 96 97 97 96 90
89 91 93 95 95 95 96 96 96 96 95 95 92 84 84 86 95 97 97 96 90 86
90 91 94 96 96 96 97 97 98 95 96 96 95 83 84 92 98 99 97 92 83 77
92 91 93 95 96 96 96 99 100 100 99 93 97 84 82 88 90 93 86 74 73 77
93 92 93 96 97 98 99 99 100 100 100 97 94 90 84 80 88 91 88 83 82 84

GFSNIL_sfc_rhum_072.txt.gz
RH
96 98 98 98 98 98 97 97 96 97 94 86 82 88 91 95 96 97 98 99 99 98
93 95 96 96 97 98 97 96 95 94 90 86 89 91 92 94 94 96 96 97 98 99
84 89 91 94 94 94 92 87 89 86 86 87 88 90 92 94 94 96 97 98 98 98
80 78 78 80 81 82 82 81 83 83 85 86 87 89 90 91 90 94 96 95 96 95
80 80 80 78 79 80 80 77 78 81 82 81 82 86 89 89 90 92 94 95 94 94
85 84 83 80 81 81 82 82 79 76 77 79 86 88 89 90 91 92 93 94 94 93
89 88 87 85 82 81 81 85 87 82 81 87 90 90 90 90 91 92 92 92 91 92
89 89 88 88 88 88 89 89 89 89 90 90 89 88 91 92 93 93 93 92 92 93
90 90 90 90 90 91 92 92 92 91 91 92 88 80 79 88 95 95 95 94 94 96
91 91 91 91 92 93 94 94 93 94 94 94 93 81 81 83 94 96 97 96 98 94
92 92 92 94 94 94 95 95 96 95 95 95 93 84 83 86 95 96 97 96 95 92
94 93 93 94 96 96 96 97 97 96 96 96 96 84 81 94 98 99 98 95 86 80
94 94 93 93 96 96 96 99 99 100 98 93 99 86 82 91 96 98 96 85 82 84
94 95 94 95 96 97 98 99 100 100 99 99 94 92 83 86 87 96 91 83 80 80

GFSNIL_sfc_rhum_075.txt.gz
RH
88 93 94 94 95 94 94 93 94 96 96 97 97 97 94 93 91 89 91 90 92 88
79 88 89 91 93 94 92 94 94 94 96 94 93 92 89 86 84 87 88 89 89 88
70 75 83 86 90 90 90 91 94 89 90 85 83 81 84 86 83 85 89 88 89 90
67 67 69 74 76 80 77 81 82 79 80 82 82 80 81 79 78 79 83 85 88 86
70 69 67 67 68 71 75 74 72 74 73 72 77 77 75 77 77 76 78 80 88 87
74 71 69 68 70 74 74 73 71 70 73 76 74 73 72 73 74 77 80 82 84 83
75 75 72 70 71 72 72 74 73 71 72 74 75 77 79 79 77 78 79 80 80 79
76 77 77 75 74 74 75 75 74 76 77 77 77 76 79 79 78 79 80 82 82 84
82 80 81 80 79 80 80 79 78 78 78 81 77 82 83 82 82 84 85 85 83 85
81 85 84 82 82 84 84 84 84 82 80 79 78 81 81 83 84 85 89 91 90 89
85 88 86 85 85 85 85 85 84 83 83 83 81 83 83 84 87 90 91 93 92 91
86 90 90 90 88 88 88 91 97 88 89 92 92 85 81 91 95 95 93 88 87 84
88 91 93 90 92 89 88 94 92 100 96 91 98 86 83 92 88 92 89 88 86 84
87 91 91 94 91 98 98 96 99 99 100 96 86 81 84 88 84 85 85 84 81 78

GFSNIL_sfc_rhum_078.txt.gz
RH
83 87 86 85 90 87 88 88 90 93 92 91 90 95 97 96 95 96 97 93 86 75
65 78 78 80 81 84 85 88 87 88 89 91 89 90 87 90 89 89 89 84 80 78
57 59 68 74 79 82 82 86 88 91 93 89 84 82 82 79 77 78 80 78 75 75
55 57 56 59 66 74 77 85 90 90 86 80 74 72 74 73 74 73 74 78 78 75
53 55 57 55 57 60 66 72 83 84 79 72 68 66 66 70 70 68 73 73 82 83
51 53 54 54 52 57 58 62 64 69 68 63 62 59 58 55 60 61 60 63 67 65
56 56 55 55 54 56 57 58 58 58 58 58 58 55 55 58 60 62 61 61 63 65
60 59 60 61 59 58 59 58 58 56 58 58 59 61 63 64 61 61 63 66 66 73
62 62 66 64 62 62 62 60 61 62 62 65 61 78 80 70 69 68 68 72 70 70
64 67 68 70 66 68 68 66 70 66 63 64 63 82 83 83 67 71 74 77 76 78
71 68 69 71 72 68 69 71 69 69 67 66 66 82 83 84 72 73 75 79 75 79
76 73 72 78 78 75 75 77 84 72 71 76 78 84 84 85 82 83 83 76 73 79
77 77 78 78 81 80 79 82 84 98 82 82 86 84 85 85 83 84 75 72 74 85
69 79 78 81 81 89 92 83 86 92 97 90 77 71 85 86 82 77 72 73 80 79

GFSNIL_sfc_rhum_081.txt.gz
RH
84 94 86 84 86 84 86 87 86 91 93 94 94 97 97 98 98 98 98 98 96 95
59 72 78 77 84 90 89 93 92 94 97 97 95 95 95 98 97 94 95 94 91 87
58 57 59 68 73 73 77 84 92 94 94 95 94 94 94 91 84 86 85 85 85 81
52 56 57 56 58 66 71 77 90 95 96 95 92 89 86 82 81 79 79 83 83 81
47 51 53 55 55 55 62 69 84 90 92 91 88 79 76 77 75 75 76 79 85 81
50 52 50 52 54 54 59 60 67 83 90 89 86 74 67 66 68 68 68 68 73 75
54 54 54 54 54 55 54 59 61 65 76 81 78 72 67 65 62 63 65 64 67 67
56 55 56 58 58 57 58 58 61 61 63 62 67 66 64 65 66 67 69 68 66 73
59 60 63 62 65 62 62 60 61 63 62 65 60 72 76 70 68 66 67 71 73 71
64 66 64 63 65 68 67 66 68 66 64 64 64 80 82 82 66 73 76 80 78 77
68 73 70 68 71 71 72 72 70 70 68 68 64 84 86 86 75 74 78 83 81 80
65 75 77 80 78 77 82 80 82 77 75 77 80 86 88 88 88 91 84 74 74 74
60 64 73 76 79 81 85 86 86 90 88 82 86 85 88 89 89 92 84 76 74 82
52 60 67 75 78 82 86 89 93 90 94 92 81 78 86 87 83 85 84 79 83 80

GFSNIL_sfc_rhum_084.txt.gz
RH
91 96 94 95 94 93 92 96 94 96 96 97 96 98 99 98 99 98 99 99 98 97
69 78 85 90 91 97 95 96 95 96 96 97 98 98 99 99 99 99 98 98 97 95
67 67 68 70 80 84 87 86 95 98 98 98 98 98 98 99 97 97 98 98 96 94
62 64 66 67 67 72 80 86 91 96 98 98 99 98 98 97 96 96 96 93 95 94
63 64 64 66 66 66 70 74 90 94 97 98 97 96 97 96 94 93 92 94 94 93
68 68 69 68 65 66 68 70 76 93 95 95 96 95 93 90 89 90 88 90 92 92
73 72 72 71 72 70 70 71 73 82 92 92 89 87 84 82 84 81 76 77 83 86
75 74 76 77 78 79 77 76 74 76 81 90 87 82 83 79 80 80 82 81 78 81
77 80 82 80 81 83 85 83 80 81 80 82 74 75 79 77 80 79 82 81 81 80
78 84 87 86 84 89 91 91 89 89 86 83 82 78 79 80 81 81 82 85 86 86
79 84 86 86 85 82 76 81 85 90 89 89 83 81 82 84 90 89 89 88 89 92
74 82 83 87 77 78 81 83 92 89 91 93 91 85 87 91 95 93 93 92 91 91
65 73 79 88 84 77 78 83 83 95 92 90 95 87 88 92 98 97 96 90 83 83
62 68 70 81 88 88 83 82 87 90 93 95 92 88 88 89 95 96 96 93 91 86

GFSNIL_sfc_rhum_087.txt.gz
RH
92 98 99 96 98 97 95 96 94 97 97 96 97 98 99 99 99 99 99 98 98 96
82 84 84 89 94 99 99 98 96 97 97 97 97 97 98 98 99 99 98 98 98 97
68 70 73 81 81 86 91 94 96 97 99 99 99 99 98 99 98 98 99 98 98 97
66 66 65 67 68 70 72 76 91 94 96 98 99 99 99 99 98 98 98 98 98 98
70 69 69 70 69 67 70 71 77 92 95 97 98 99 99 99 99 98 98 98 99 98
74 74 76 76 75 73 73 73 73 85 94 95 97 98 98 98 97 97 96 96 97 94
83 82 81 79 79 79 80 80 80 78 86 93 95 92 94 94 95 95 95 94 95 94
82 82 85 84 83 83 87 87 85 84 83 86 93 93 90 88 87 89 90 87 87 89
82 84 88 88 88 87 89 91 90 91 90 89 81 81 87 88 88 88 88 89 90 84
81 84 88 89 90 90 86 84 92 93 93 93 90 82 81 82 88 89 89 91 88 88
75 81 86 88 90 87 76 80 80 86 88 90 88 87 85 84 90 92 91 90 91 92
71 73 80 82 90 91 90 86 87 84 89 94 92 89 90 90 94 95 93 93 92 93
67 70 77 79 87 90 91 92 92 91 92 91 93 89 89 92 97 97 95 95 95 90
62 67 70 76 81 84 91 93 93 94 94 95 94 90 87 86 94 94 94 91 95 92

GFSNIL_sfc_rhum_090.txt.gz
RH
92 97 98 98 99 99 98 98 97 97 96 96 96 97 98 99 99 99 99 99 99 98
79 87 92 91 91 96 96 97 99 98 98 98 98 98 98 99 99 99 99 99 98 98
67 67 74 80 83 79 81 85 92 95 98 99 99 99 98 98 97 99 98 98 98 98
70 69 69 70 70 71 71 72 77 91 94 97 98 99 99 99 99 98 98 98 98 98
74 74 76 77 77 76 78 75 76 82 94 94 96 97 99 99 99 98 98 98 99 98
81 82 82 80 78 77 80 82 81 82 85 93 95 97 98 99 98 98 98 98 98 98
88 89 89 86 84 84 85 86 87 86 87 86 93 95 96 96 98 98 98 98 98 97
88 87 88 87 88 88 88 89 90 90 90 90 87 88 94 94 92 95 94 93 95 97
78 79 86 89 92 90 90 90 90 91 92 95 84 87 87 87 95 93 90 93 93 94
73 75 80 85 86 89 92 91 92 86 84 90 93 85 86 89 94 94 95 94 93 92
71 74 75 82 82 88 91 92 93 92 91 91 85 84 87 89 95 95 93 93 94 94
68 70 72 76 82 84 89 91 92 91 93 95 92 86 84 90 97 98 94 91 93 94
66 67 71 74 78 84 88 84 91 93 94 87 94 90 87 88 97 99 97 89 90 89
64 68 69 74 78 81 82 84 84 87 92 90 86 81 77 82 88 95 98 95 93 91

GFSNIL_sfc_rhum_093.txt.gz
RH
94 97 97 97 97 98 99 99 99 99 99 98 99 98 99 99 99 99 99 99 99 98
84 90 93 94 94 95 95 93 98 99 99 99 98 98 97 97 98 99 98 98 98 98
69 69 76 82 81 81 84 87 92 96 96 96 99 99 98 98 98 99 98 98 99 98
73 73 72 73 74 75 73 73 75 81 92 94 94 98 99 99 99 99 99 99 99 98
79 79 80 80 79 79 82 79 80 80 81 86 92 95 98 99 99 99 99 98 99 98
84 86 88 86 84 83 84 84 85 86 88 86 87 94 95 96 98 98 98 98 98 98
91 92 92 91 88 87 89 88 90 89 90 91 90 90 94 95 96 96 98 98 99 99
82 81 87 88 90 88 89 90 93 92 90 91 88 84 94 95 94 95 95 95 96 97
73 74 78 84 84 85 88 89 90 91 92 94 82 85 85 90 96 95 96 94 91 92
69 69 73 77 77 79 85 90 91 92 92 92 92 76 79 82 95 97 96 95 96 95
71 69 71 73 73 76 81 85 85 86 92 94 86 74 78 83 92 96 96 96 95 96
71 69 70 72 76 75 85 86 85 87 92 93 92 77 73 78 81 84 93 92 90 93
70 69 72 74 76 77 80 78 77 79 82 86 90 80 73 68 84 91 81 74 88 89
68 72 72 76 78 82 83 83 82 79 82 84 85 89 73 70 74 76 82 89 87 88

GFSNIL_sfc_rhum_096.txt.gz
RH
90 94 94 96 96 96 97 98 98 99 99 98 99 99 99 99 99 99 99 99 99 98
81 84 89 87 90 94 94 91 95 96 97 99 99 99 99 99 98 99 98 98 99 98
72 73 78 80 83 81 82 84 87 87 93 95 94 97 99 99 98 99 99 98 98 98
78 77 78 79 79 80 78 79 79 79 79 83 90 92 95 96 98 99 99 99 99 98
78 78 79 81 82 81 83 82 83 84 84 83 82 84 91 94 94 96 98 99 99 99
81 81 82 84 83 82 84 87 85 86 88 88 88 88 87 88 91 93 94 97 99 98
84 87 88 85 83 82 82 84 85 88 87 88 90 88 93 93 93 92 91 93 94 97
75 74 79 81 81 81 84 84 87 86 86 89 80 77 83 86 94 96 93 91 90 91
68 68 70 73 74 73 79 84 83 82 89 91 76 76 69 76 91 91 95 96 93 92
70 67 70 70 69 70 75 82 82 82 87 90 89 73 69 69 89 91 88 95 93 92
74 70 70 71 72 74 77 81 82 80 85 90 76 74 72 70 90 89 81 80 94 95
76 72 73 75 78 77 82 83 83 83 86 87 87 74 66 74 88 95 94 86 72 80
74 74 77 78 80 80 84 80 84 81 82 79 87 74 68 67 88 91 93 88 88 83
73 76 76 79 81 83 85 83 84 81 84 85 80 84 69 64 80 92 86 70 69 72

GFSNIL_sfc_rhum_099.txt.gz
RH
89 92 89 88 91 92 95 95 94 96 98 99 99 98 99 99 99 98 98 98 96 91
82 84 84 80 83 88 90 88 91 92 92 93 95 96 98 99 99 99 98 97 97 98
71 71 75 77 80 78 79 79 86 88 87 88 91 93 94 95 96 98 97 96 96 96
63 65 61 62 65 67 69 71 75 77 77 80 80 84 92 93 93 94 96 97 99 98
62 61 62 62 62 61 61 61 63 65 70 74 78 79 82 83 83 86 90 93 95 96
59 60 60 60 60 60 61 62 61 63 66 66 74 78 78 80 82 80 80 82 83 88
58 58 57 57 56 57 59 60 59 62 67 68 66 69 64 70 76 78 80 79 79 80
57 54 54 55 54 53 57 58 57 55 59 62 58 64 65 66 74 74 75 80 80 80
57 55 57 55 54 53 55 57 56 57 59 62 52 66 70 66 70 75 74 71 79 81
60 58 58 58 57 58 58 60 61 59 59 60 60 62 68 66 68 72 72 78 74 71
65 63 61 61 61 60 59 62 61 59 60 62 53 64 66 64 66 73 75 77 75 76
66 66 64 66 68 67 67 69 69 65 65 66 66 67 64 63 67 73 74 70 69 66
63 63 65 66 69 67 68 68 69 66 65 66 67 66 66 61 66 70 71 71 65 68
61 65 66 70 70 73 73 71 72 67 68 62 58 58 67 66 62 70 74 71 66 61

GFSNIL_sfc_rhum_102.txt.gz
RH
93 95 93 93 91 88 91 92 90 90 93 94 95 96 99 99 98 96 95 95 94 93
80 81 85 83 75 82 80 80 89 91 90 92 93 94 94 97 97 98 96 95 94 94
61 62 52 48 51 47 50 59 64 76 84 85 85 88 92 94 92 94 97 96 96 94
40 43 40 38 38 41 39 37 41 45 54 64 71 77 82 87 87 90 91 92 96 96
34 33 33 36 34 32 33 35 35 36 38 42 50 53 59 64 67 72 76 81 86 89
32 31 30 30 31 31 32 32 32 34 37 36 39 39 37 38 41 45 54 63 70 72
34 33 32 32 31 31 31 31 31 31 34 38 38 42 48 46 45 45 46 48 58 60
36 35 35 36 36 35 35 34 33 33 33 34 32 34 54 51 48 50 49 48 48 58
40 38 40 39 39 37 37 36 36 36 36 36 31 55 61 62 49 48 48 47 49 50
40 41 40 39 38 38 38 36 39 37 35 34 32 48 57 62 46 46 47 53 54 50
42 41 41 42 42 41 39 40 40 40 39 40 36 52 57 58 46 45 47 50 49 49
44 43 43 45 46 46 48 49 51 47 47 48 46 50 56 54 48 49 47 39 41 48
44 44 44 44 47 48 49 50 51 50 49 51 52 52 52 54 48 47 40 40 41 54
42 44 44 48 48 52 53 50 53 49 45 38 35 38 52 60 52 47 47 45 44 43

GFSNIL_sfc_rhum_105.txt.gz
RH
74 84 85 92 94 95 90 86 84 89 91 89 90 92 93 96 96 99 99 99 99 97
77 73 76 75 67 66 64 57 63 74 85 88 88 91 92 94 95 94 96 97 98 98
46 47 46 41 36 35 37 39 41 45 52 63 74 84 90 90 88 90 94 94 94 95
32 32 32 31 30 29 29 30 30 32 33 37 40 43 54 66 74 78 85 89 93 92
30 29 29 28 28 29 29 27 29 32 33 32 37 41 41 41 43 45 50 55 71 78
28 28 27 28 27 27 28 27 27 28 31 34 33 33 38 42 42 43 44 47 53 57
30 30 30 30 32 31 30 30 30 29 28 30 29 30 42 44 44 44 46 44 47 49
35 33 33 34 33 31 30 28 29 29 30 30 29 31 49 50 48 45 46 47 42 49
34 35 37 34 32 32 33 32 32 33 32 34 25 45 52 54 49 43 44 47 48 47
34 34 33 33 33 35 35 33 36 35 34 34 33 42 51 56 46 44 44 49 52 49
36 36 36 37 38 37 36 38 38 39 39 41 38 47 51 54 50 45 47 51 47 44
38 39 40 44 43 42 44 48 53 47 48 50 51 51 55 52 53 53 47 38 37 39
39 40 41 43 45 48 48 51 53 53 52 51 53 48 44 50 53 52 42 39 38 50
38 41 40 45 46 53 55 52 54 51 45 37 33 34 45 53 53 55 56 53 49 44

GFSNIL_sfc_rhum_108.txt.gz
RH
80 84 85 89 93 84 82 84 76 80 85 87 87 90 92 91 91 92 95 95 97 96
70 68 70 65 63 65 60 50 59 61 65 75 80 81 83 88 91 90 92 94 94 95
41 41 39 37 35 36 38 43 47 50 53 55 58 60 66 83 85 88 90 86 89 91
37 36 35 35 35 35 34 34 35 36 38 39 42 48 57 60 59 62 72 79 80 82
38 36 35 36 35 35 36 35 34 35 37 38 39 40 46 50 52 53 56 59 64 68
41 41 42 42 42 40 40 41 39 38 40 40 42 40 47 48 52 50 54 56 56 60
48 46 47 46 46 44 42 42 42 41 40 42 40 46 52 53 55 54 52 54 58 58
47 47 49 49 47 44 45 44 43 44 45 44 39 33 53 58 62 61 54 56 55 59
46 47 49 47 48 48 50 49 47 48 49 50 35 46 48 52 60 59 56 56 59 61
46 47 49 48 49 51 51 50 52 53 53 54 52 49 50 53 55 62 61 61 61 56
50 52 53 55 56 55 55 56 59 60 60 61 53 53 54 55 64 66 65 64 61 58
55 56 57 61 63 62 64 69 72 66 69 71 67 58 53 51 68 70 66 52 50 52
55 57 59 60 63 65 68 69 73 70 71 67 66 60 46 47 67 74 66 64 59 61
54 56 55 60 62 68 72 71 73 71 66 55 50 53 52 54 56 65 65 65 64 61

GFSNIL_sfc_rhum_111.txt.gz
RH
70 79 79 77 78 76 74 76 69 66 68 70 77 87 89 93 93 90 94 92 91 92
58 58 64 59 58 63 58 44 55 59 58 59 61 66 72 88 90 88 91 92 91 91
42 42 40 37 36 36 37 42 46 49 53 56 57 60 69 73 77 79 87 85 84 88
44 42 39 40 42 41 39 40 40 40 41 44 46 50 61 64 62 63 67 72 71 70
44 45 46 47 47 46 46 44 42 42 43 44 45 49 56 58 60 60 60 60 65 64
50 50 51 51 51 48 48 47 45 44 46 46 46 49 57 57 61 61 60 59 61 61
52 54 54 54 53 49 48 49 49 47 48 49 48 47 54 58 62 65 59 56 57 61
50 52 54 51 51 51 52 52 52 50 53 53 48 38 55 60 65 70 66 63 57 59
50 50 52 53 54 54 56 55 55 58 59 61 45 54 54 55 64 68 67 66 63 61
50 51 55 56 57 59 59 60 62 64 65 64 65 56 56 56 61 70 70 68 69 62
55 58 60 62 62 63 64 66 68 69 69 70 58 58 58 56 64 72 74 75 69 63
59 61 63 65 66 66 67 73 75 72 75 76 73 64 52 52 68 73 74 66 66 65
59 60 62 63 65 66 69 71 77 74 76 70 70 60 55 56 70 75 73 71 69 65
56 59 59 62 65 70 75 72 76 70 70 64 63 70 62 63 63 67 66 69 70 68

GFSNIL_sfc_rhum_114.txt.gz
RH
60 71 72 72 75 72 70 68 64 64 65 64 64 71 78 92 92 93 96 95 93 91
58 57 60 55 55 57 55 42 55 59 59 60 58 62 70 78 83 87 92 95 94 92
49 47 46 46 46 46 47 49 50 52 54 56 55 59 67 70 69 71 80 79 78 79
48 48 49 50 52 52 48 48 46 46 47 48 49 56 65 66 66 68 69 71 70 71
50 51 53 53 54 53 51 50 48 48 49 49 50 52 61 63 65 67 66 64 69 66
54 54 56 57 56 51 52 53 52 51 53 54 54 52 59 61 65 67 66 67 64 64
54 56 59 58 52 52 54 55 55 54 55 57 56 52 52 59 66 71 68 69 68 67
52 55 54 53 55 56 58 56 57 58 60 62 56 46 63 66 68 71 73 72 67 67
53 53 55 57 58 60 60 60 62 64 67 69 51 56 55 58 70 72 74 75 74 73
52 53 57 60 60 61 63 66 67 67 70 71 71 57 57 55 64 73 74 77 78 70
57 58 61 64 64 64 65 64 69 71 72 75 62 60 55 55 69 73 76 77 76 77
59 61 63 64 66 65 66 72 75 76 78 79 78 61 58 63 78 75 76 70 72 74
60 62 62 63 66 66 69 69 75 72 74 65 73 68 61 64 79 79 77 80 77 68
58 59 61 64 66 70 73 72 77 70 73 71 72 78 64 63 72 77 78 79 74 76

GFSNIL_sfc_rhum_117.txt.gz
RH
64 74 74 70 74 72 69 68 62 62 62 61 59 68 72 84 80 85 93 93 92 93
61 59 61 57 59 61 60 45 60 62 63 63 61 66 67 77 74 83 87 93 90 87
52 50 51 53 53 52 52 53 54 55 57 59 60 68 71 76 74 75 82 77 81 81
51 51 53 55 56 56 52 52 50 51 52 53 54 58 67 69 70 72 74 75 76 76
52 53 56 58 58 55 53 53 54 52 54 55 56 56 64 65 69 72 73 73 76 74
55 56 58 60 58 53 56 57 56 56 59 60 60 58 55 63 68 71 72 74 74 73
56 57 59 57 54 54 57 57 58 59 61 63 63 59 60 67 70 72 71 73 73 75
54 57 56 53 56 57 59 59 62 63 65 68 62 49 68 71 73 75 75 73 71 72
56 58 56 57 60 61 63 63 65 68 70 71 54 59 57 59 73 74 78 77 78 77
58 57 58 60 62 62 63 67 67 70 72 74 72 58 55 56 67 72 75 77 80 74
61 59 60 63 64 64 66 66 70 72 75 77 64 60 58 59 76 80 79 78 82 84
62 60 60 62 65 67 69 72 75 75 77 76 75 64 61 66 82 78 79 76 79 79
64 62 63 64 67 69 72 66 74 69 74 69 75 68 65 66 81 84 78 80 78 72
62 62 63 67 69 71 74 71 78 70 73 74 74 83 69 66 73 78 78 79 76 76